Regional Weather Roundup
Issued by NWS Burlington, VT

Home | Current Version | Previous Version | Text Only | Print | Product List | Glossary On
Versions: 1 2 3 4 5 6 7 8 9 10 11 12 13 14 15 16 17 18 19 20 21 22 23 24 25 26 27 28 29 30 31 32 33 34 35 36 37 38 39 40 41 42 43 44 45 46 47 48 49 50
000
ASUS41 KBTV 020130
RWRBTV
VERMONT REGIONAL WEATHER ROUNDUP
NATIONAL WEATHER SERVICE BURLINGTON VT
900 PM EDT WED OCT 01 2014

NOTE: "FAIR" INDICATES FEW OR NO CLOUDS BELOW 12,000 FEET WITH NO
SIGNIFICANT WEATHER AND/OR OBSTRUCTIONS TO VISIBILITY.

* THESE REPORTS ARE NOT UNDER NWS QUALITY CONTROL AND/OR DO NOT
  REPORT WEATHER SUCH AS PRECIPITATION AND FOG.

VTZ001>019-020200-
_____VERMONT_____


CITY           SKY/WX    TMP DP  RH WIND       PRES   REMARKS
BURLINGTON     CLOUDY    58  54  86 CALM      30.16S
MONTPELIER     CLOUDY    56  54  93 CALM      30.19R
MORRISVILLE    CLOUDY    58  53  84 CALM      30.17S
ST. JOHNSBURY*   N/A     56  53  90 MISG      30.14R
MIDDLEBURY*    CLOUDY    55  55 100 CALM      30.15S
RUTLAND*       CLOUDY    57  55  94 CALM      30.15R
SPRINGFIELD    CLOUDY    57  56  96 CALM      30.16S
HIGHGATE*      FAIR      52  51  97 CALM      30.15F FOG
NEWPORT*       MOCLDY   N/A N/A N/A CALM      30.16F
BENNINGTON     LGT RAIN  58  56  93 CALM      30.13S
SUTTON*          N/A     52 N/A N/A MISG        N/A
GALLUP MILLS*    N/A     48 N/A N/A MISG        N/A
UNION VILLAGE*   N/A     59 N/A N/A MISG        N/A
MT. MANSFIELD*   N/A     48 N/A N/A SE7         N/A

_____LAKE CHAMPLAIN_____


CITY           SKY/WX    TMP DP  RH WIND       PRES   REMARKS
BURTON ISLAND*   N/A     59  55  88 W1          N/A
COLCHESTER RF*   N/A     59  55  88 NW12        N/A
DIAMOND ISL*     N/A     57  54  88 N5          N/A

$$

NYZ007-026>031-035-052-083-020200-
_____NORTHERN NEW YORK_____


CITY           SKY/WX    TMP DP  RH WIND       PRES   REMARKS
PLATTSBURGH    CLOUDY    55  53  93 W5        30.15F
SARANAC LAKE   MOCLDY    52  50  93 NE8       30.14R
MASSENA        CLEAR     55  53  93 NE8       30.15R
OGDENSBURG*    CLEAR     55  54  94 NE5       30.13S
POTSDAM*       CLEAR     54  54 100 E5        30.13S
PARISHVILLE*     N/A     57 N/A N/A SE5         N/A
WATERTOWN      CLOUDY    61  53  75 E5        30.11R
FT DRUM        PTCLDY    59  53  82 NE7       30.11R
ALBANY         DRIZZLE   62  57  83 NE6       30.12S
GLENS FALLS    CLOUDY    61  54  77 NE6       30.13S

$$
NHZ002-005-011-020200-
_____NEW HAMPSHIRE_____


CITY           SKY/WX    TMP DP  RH WIND       PRES   REMARKS
LEBANON        CLOUDY    60  56  86 CALM      30.14S
KEENE          CLOUDY    57  48  72 N3        30.14S
MT WASHINGTON  CLOUDY    45  43  93 SE1         N/A
PLYMOUTH       CLOUDY    58  56  95 CALM      30.15S
WHITEFIELD     CLOUDY    60  51  72 E7        30.16R

$$

_____REGIONAL QUEBEC LOCATIONS_____


CITY           SKY/WX    TMP DP  RH WIND       PRES   REMARKS
MONTREAL       PTCLDY    55  50  82 NE9       30.17R
QUEBEC CITY    CLEAR     48  43  81 NE7       30.23R
SHERBROOKE     CLOUDY    57  52  82 NE8       30.17R

_____REGIONAL ONTARIO LOCATIONS_____


CITY           SKY/WX    TMP DP  RH WIND       PRES   REMARKS
OTTAWA         CLEAR     55  52  88 E8        30.15R

______KEY______
VSB  - VISIBILITY IN MILES
WCI  - WIND CHILL INDEX
HX   - HEAT INDEX
$$
NNNN


USA.gov is the U.S. government's official web portal to all federal, state and local government web resources and services.